When you browse on this site, cookies collect data to enhance your experience and personalize the content and advertising you see.
Visit our Privacy Policy to learn more. By continuing to use the site, you agree to this use of cookies and data.
  • In Deutschland
  • Länderverzeichnis
  • Für 7 Tage
  • Wassertemperatur
  • Wetterkarte
  • Widgets
  • user-avatar
    Anmelden

    Stündliche Wetter Zwierzyniec

    Heute, 2 Juni, Dienstag

    Zeit Temperatur Niederschläge Wind Luftdruck Luftfeuchtigkeit
    00:00 +10°C° 0.7 mm 2 m/S 754 mmHg 91%
    01:00 +9°C° 0 mm 2 m/S 753 mmHg 94%
    02:00 +9°C° 0.1 mm 2 m/S 753 mmHg 94%
    03:00 +8°C° 0.1 mm 3 m/S 753 mmHg 94%
    04:00 +8°C° 0.1 mm 3 m/S 753 mmHg 94%
    05:00 +9°C° 0 mm 3 m/S 753 mmHg 88%
    06:00 +10°C° 0 mm 4 m/S 753 mmHg 82%
    07:00 +11°C° 0 mm 4 m/S 753 mmHg 77%
    08:00 +13°C° 0 mm 4 m/S 753 mmHg 70%
    09:00 +14°C° 0 mm 5 m/S 752 mmHg 63%
    10:00 +15°C° 0 mm 5 m/S 752 mmHg 56%
    11:00 +16°C° 0 mm 5 m/S 752 mmHg 54%
    12:00 +17°C° 0 mm 6 m/S 752 mmHg 53%
    13:00 +17°C° 0 mm 6 m/S 751 mmHg 52%
    14:00 +17°C° 0.1 mm 6 m/S 751 mmHg 53%
    15:00 +17°C° 0.1 mm 6 m/S 750 mmHg 55%
    16:00 +17°C° 0.1 mm 6 m/S 750 mmHg 56%
    17:00 +16°C° 0.1 mm 5 m/S 750 mmHg 62%
    18:00 +14°C° 0.1 mm 4 m/S 749 mmHg 68%
    19:00 +13°C° 0.1 mm 4 m/S 749 mmHg 74%
    20:00 +12°C° 0 mm 3 m/S 749 mmHg 78%
    21:00 +11°C° 0 mm 3 m/S 749 mmHg 82%
    22:00 +10°C° 0 mm 3 m/S 749 mmHg 86%
    23:00 +9°C° 0 mm 3 m/S 748 mmHg 88%

    Morgen, 3 Juni, Mittwoch

    Zeit Temperatur Niederschläge Wind Luftdruck Luftfeuchtigkeit
    00:00 +9°C° 0 mm 3 m/S 748 mmHg 89%
    01:00 +8°C° 0 mm 3 m/S 748 mmHg 91%
    02:00 +8°C° 0 mm 3 m/S 748 mmHg 90%
    03:00 +8°C° 0 mm 3 m/S 747 mmHg 90%
    04:00 +8°C° 0 mm 3 m/S 747 mmHg 89%
    05:00 +8°C° 0.1 mm 3 m/S 747 mmHg 88%
    06:00 +9°C° 0.1 mm 3 m/S 747 mmHg 86%
    07:00 +10°C° 0.1 mm 3 m/S 747 mmHg 85%
    08:00 +10°C° 0.1 mm 3 m/S 747 mmHg 85%
    09:00 +10°C° 0.1 mm 3 m/S 747 mmHg 85%
    10:00 +11°C° 0.1 mm 3 m/S 746 mmHg 85%
    11:00 +12°C° 0.2 mm 3 m/S 746 mmHg 79%
    12:00 +14°C° 0.2 mm 4 m/S 746 mmHg 72%
    13:00 +17°C° 0.2 mm 4 m/S 746 mmHg 66%
    14:00 +17°C° 0.4 mm 4 m/S 745 mmHg 66%
    15:00 +17°C° 0.4 mm 4 m/S 745 mmHg 67%
    16:00 +17°C° 0.4 mm 4 m/S 744 mmHg 67%
    17:00 +16°C° 0.2 mm 3 m/S 744 mmHg 72%
    18:00 +14°C° 0.2 mm 3 m/S 744 mmHg 77%
    19:00 +14°C° 0.2 mm 2 m/S 744 mmHg 82%
    20:00 +13°C° 0 mm 2 m/S 744 mmHg 85%
    21:00 +12°C° 0 mm 2 m/S 744 mmHg 88%
    22:00 +10°C° 0 mm 2 m/S 744 mmHg 91%
    23:00 +9°C° 0 mm 2 m/S 744 mmHg 92%

    übermorgen, 4 Juni, Donnerstag

    Zeit Temperatur Niederschläge Wind Luftdruck Luftfeuchtigkeit
    00:00 +9°C° 0 mm 2 m/S 744 mmHg 93%
    01:00 +8°C° 0 mm 2 m/S 744 mmHg 95%
    02:00 +8°C° 0 mm 2 m/S 744 mmHg 95%
    03:00 +9°C° 0 mm 1 m/S 743 mmHg 95%
    04:00 +8°C° 0 mm 1 m/S 743 mmHg 95%
    05:00 +10°C° 0 mm 1 m/S 743 mmHg 89%
    06:00 +12°C° 0 mm 1 m/S 743 mmHg 83%
    07:00 +14°C° 0 mm 1 m/S 743 mmHg 77%
    08:00 +15°C° 0 mm 1 m/S 743 mmHg 70%
    09:00 +18°C° 0 mm 1 m/S 743 mmHg 63%
    10:00 +19°C° 0 mm 1 m/S 743 mmHg 57%
    11:00 +20°C° 0 mm 1 m/S 743 mmHg 54%
    12:00 +21°C° 0 mm 1 m/S 742 mmHg 50%
    13:00 +22°C° 0 mm 1 m/S 742 mmHg 47%
    14:00 +22°C° 0 mm 1 m/S 742 mmHg 47%
    15:00 +22°C° 0 mm 1 m/S 742 mmHg 46%
    16:00 +22°C° 0 mm 1 m/S 741 mmHg 45%
    17:00 +21°C° 0 mm 1 m/S 741 mmHg 52%
    18:00 +19°C° 0 mm 2 m/S 741 mmHg 58%
    19:00 +17°C° 0 mm 2 m/S 741 mmHg 64%
    20:00 +16°C° 0 mm 2 m/S 741 mmHg 66%
    21:00 +14°C° 0 mm 3 m/S 741 mmHg 67%
    22:00 +14°C° 0 mm 3 m/S 741 mmHg 69%
    23:00 +13°C° 0 mm 4 m/S 741 mmHg 72%

    5 Juni, Freitag

    Zeit Temperatur Niederschläge Wind Luftdruck Luftfeuchtigkeit
    00:00 +13°C° 0 mm 4 m/S 740 mmHg 74%
    01:00 +12°C° 0 mm 4 m/S 740 mmHg 76%
    02:00 +12°C° 0 mm 4 m/S 740 mmHg 78%
    03:00 +12°C° 0 mm 5 m/S 739 mmHg 80%
    04:00 +12°C° 0 mm 5 m/S 739 mmHg 82%
    05:00 +13°C° 0 mm 5 m/S 738 mmHg 83%
    06:00 +14°C° 0 mm 5 m/S 738 mmHg 83%
    07:00 +15°C° 0 mm 6 m/S 738 mmHg 84%
    08:00 +17°C° 0 mm 5 m/S 738 mmHg 80%
    09:00 +19°C° 0 mm 5 m/S 738 mmHg 75%
    10:00 +21°C° 0 mm 5 m/S 738 mmHg 71%
    11:00 +21°C° 0.1 mm 6 m/S 738 mmHg 70%
    12:00 +22°C° 0.1 mm 6 m/S 739 mmHg 69%
    13:00 +22°C° 0.1 mm 7 m/S 739 mmHg 68%
    14:00 +21°C° 0.1 mm 7 m/S 739 mmHg 69%
    15:00 +21°C° 0.1 mm 6 m/S 740 mmHg 70%
    16:00 +20°C° 0.1 mm 6 m/S 740 mmHg 71%
    17:00 +17°C° 0 mm 5 m/S 741 mmHg 75%
    18:00 +17°C° 0 mm 3 m/S 741 mmHg 78%
    19:00 +16°C° 0 mm 2 m/S 742 mmHg 82%
    20:00 +14°C° 0.2 mm 3 m/S 742 mmHg 85%
    21:00 +14°C° 0.2 mm 3 m/S 743 mmHg 88%
    22:00 +13°C° 0.2 mm 3 m/S 743 mmHg 91%
    23:00 +12°C° 1.2 mm 3 m/S 743 mmHg 92%

    6 Juni, Samstag

    Zeit Temperatur Niederschläge Wind Luftdruck Luftfeuchtigkeit
    00:00 +13°C° 1.2 mm 2 m/S 743 mmHg 93%
    01:00 +12°C° 1.2 mm 2 m/S 743 mmHg 93%
    02:00 +12°C° 0 mm 2 m/S 744 mmHg 93%
    03:00 +12°C° 0 mm 2 m/S 744 mmHg 93%
    04:00 +10°C° 0 mm 2 m/S 744 mmHg 93%
    05:00 +12°C° 0 mm 3 m/S 745 mmHg 89%
    06:00 +13°C° 0 mm 4 m/S 745 mmHg 84%
    07:00 +14°C° 0 mm 5 m/S 745 mmHg 79%
    08:00 +16°C° 0 mm 6 m/S 746 mmHg 73%
    09:00 +17°C° 0 mm 6 m/S 746 mmHg 67%
    10:00 +19°C° 0 mm 6 m/S 746 mmHg 61%
    11:00 +20°C° 0.1 mm 7 m/S 746 mmHg 59%
    12:00 +20°C° 0.1 mm 7 m/S 747 mmHg 58%
    13:00 +21°C° 0.1 mm 7 m/S 747 mmHg 57%
    14:00 +21°C° 0 mm 7 m/S 747 mmHg 57%
    15:00 +22°C° 0 mm 7 m/S 747 mmHg 56%
    16:00 +22°C° 0 mm 6 m/S 747 mmHg 56%
    17:00 +21°C° 0 mm 5 m/S 747 mmHg 62%
    18:00 +20°C° 0 mm 4 m/S 748 mmHg 67%
    19:00 +18°C° 0 mm 3 m/S 748 mmHg 73%
    20:00 +17°C° 0 mm 3 m/S 748 mmHg 76%
    21:00 +16°C° 0 mm 3 m/S 749 mmHg 80%
    22:00 +16°C° 0 mm 3 m/S 750 mmHg 83%
    23:00 +16°C° 0 mm 3 m/S 750 mmHg 83%

    7 Juni, Sonntag

    Zeit Temperatur Niederschläge Wind Luftdruck Luftfeuchtigkeit
    00:00 +16°C° 0 mm 2 m/S 750 mmHg 82%
    01:00 +16°C° 0 mm 2 m/S 750 mmHg 82%
    02:00 +16°C° 0 mm 2 m/S 750 mmHg 82%
    03:00 +15°C° 0 mm 2 m/S 750 mmHg 82%
    04:00 +15°C° 0 mm 2 m/S 750 mmHg 81%
    05:00 +16°C° 0 mm 2 m/S 751 mmHg 79%
    06:00 +17°C° 0 mm 2 m/S 751 mmHg 77%
    07:00 +18°C° 0 mm 2 m/S 751 mmHg 74%
    08:00 +20°C° 0.3 mm 3 m/S 751 mmHg 70%
    09:00 +22°C° 0.3 mm 4 m/S 751 mmHg 66%
    10:00 +23°C° 0.3 mm 5 m/S 751 mmHg 62%
    11:00 +25°C° 0.8 mm 5 m/S 751 mmHg 61%
    12:00 +26°C° 0.8 mm 5 m/S 751 mmHg 60%
    13:00 +26°C° 0.8 mm 5 m/S 750 mmHg 59%
    14:00 +26°C° 0.5 mm 5 m/S 750 mmHg 60%
    15:00 +26°C° 0.5 mm 4 m/S 750 mmHg 61%
    16:00 +26°C° 0.5 mm 4 m/S 749 mmHg 63%
    17:00 +25°C° 0.2 mm 4 m/S 749 mmHg 68%
    18:00 +22°C° 0.2 mm 4 m/S 749 mmHg 73%
    19:00 +21°C° 0.2 mm 4 m/S 749 mmHg 78%
    20:00 +20°C° 0 mm 3 m/S 749 mmHg 81%
    21:00 +19°C° 0 mm 3 m/S 749 mmHg 84%
    22:00 +18°C° 0 mm 3 m/S 749 mmHg 86%
    23:00 +17°C° 0 mm 3 m/S 748 mmHg 87%
    Mehr zeigen